CW9723 Weather Reports


time (UTC)temp
F
wind
direction
speed
knots
gust
knots
rain 1hr
in
rain 24hr
in
rain mn
in
humidity
%
barometer
mb
20260504050328 53 209 1.7 5.2 0.00 0.02 0.00 57 1008.4
20260504050317 53 237 2.6 6.1 0.00 0.02 0.00 56 1008.4
20260504045317 53 243 0.9 2.6 0.00 0.02 0.00 58 1008.4
20260504044815 53 255 1.7 2.6 0.00 0.02 0.00 58 1008.4
20260504044314 53 208 1.7 2.6 0.00 0.02 0.00 58 1008.4
20260504043814 53 200 1.7 4.3 0.00 0.02 0.00 58 1008.4
20260504043538 53 196 1.7 4.3 0.00 0.02 0.00 59 1008.4
20260504042814 53 0 0.9 2.6 0.00 0.02 0.00 60 1008.5
20260504042534 53 216 0.9 2.6 0.00 0.02 0.00 60 1008.5
20260504041815 53 199 1.7 3.5 0.00 0.02 0.00 59 1008.5
20260504041315 53 188 1.7 3.5 0.00 0.02 0.00 57 1008.5
20260504041247 54 173 1.7 3.5 0.00 0.02 0.00 58 1008.5
20260504040528 54 195 1.7 3.5 0.00 0.02 0.00 58 1008.4
20260504040024 54 211 1.7 4.3 0.00 0.02 0.02 58 1008.5
20260504035909 54 231 1.7 3.5 0.00 0.02 0.02 58 1008.4
20260504034811 54 215 1.7 5.2 0.00 0.02 0.02 57 1008.4
20260504034311 55 169 1.7 5.2 0.00 0.02 0.02 57 1008.5
20260504033811 55 210 1.7 4.3 0.00 0.02 0.02 56 1008.4
20260504033311 55 270 1.7 5.2 0.00 0.02 0.02 56 1008.4
20260504032811 55 190 2.6 7.0 0.00 0.02 0.02 56 1008.4
20260504032311 55 251 2.6 7.0 0.00 0.02 0.02 55 1008.5
20260504032030 55 254 2.6 5.2 0.00 0.02 0.02 55 1008.5
20260504031546 55 277 2.6 6.1 0.00 0.02 0.02 55 1008.6
20260504030810 55 248 2.6 6.1 0.00 0.02 0.02 55 1008.6
20260504030311 55 251 2.6 6.1 0.00 0.02 0.02 56 1008.7
20260504030041 55 217 2.6 6.1 0.00 0.02 0.02 56 1008.7
20260504025311 55 254 2.6 5.2 0.00 0.02 0.02 56 1008.8
20260504024811 55 265 2.6 5.2 0.00 0.02 0.02 56 1008.9
20260504024311 55 248 2.6 6.1 0.00 0.02 0.02 55 1008.9
20260504023812 55 252 2.6 6.1 0.00 0.02 0.02 55 1008.9
20260504023303 55 238 2.6 6.1 0.00 0.02 0.02 55 1008.9
20260504022803 56 263 2.6 6.1 0.00 0.02 0.02 54 1008.9
20260504022742 56 224 2.6 7.0 0.00 0.02 0.02 53 1008.8
20260504022025 56 260 2.6 7.0 0.00 0.02 0.02 53 1008.8
20260504021303 56 293 3.5 9.6 0.00 0.02 0.02 53 1008.9
20260504020801 56 345 4.3 10.4 0.00 0.02 0.02 53 1009.1
20260504020536 55 256 3.5 10.4 0.00 0.02 0.02 53 1009.1
20260504015759 55 33 3.5 7.8 0.00 0.02 0.02 55 1009.2
20260504015753 55 267 3.5 12.2 0.00 0.02 0.02 54 1009.3
20260504014800 55 267 5.2 12.2 0.00 0.02 0.02 54 1009.3
20260504014300 55 278 5.2 12.2 0.00 0.02 0.02 54 1009.3
20260504013800 55 310 4.3 9.6 0.00 0.02 0.02 54 1009.4
20260504013300 55 315 3.5 8.7 0.00 0.02 0.02 55 1009.4
20260504013025 55 43 3.5 8.7 0.00 0.02 0.02 55 1009.5
20260504012300 55 24 3.5 8.7 0.00 0.02 0.02 55 1009.5
20260504011800 55 305 3.5 9.6 0.00 0.02 0.02 53 1009.5
20260504011301 56 243 3.5 9.6 0.01 0.02 0.02 52 1009.4
20260504010812 56 332 3.5 9.6 0.01 0.02 0.02 52 1009.4
20260504010520 56 295 4.3 11.3 0.01 0.02 0.02 51 1009.2
20260504005759 56 280 5.2 11.3 0.01 0.02 0.02 50 1009.1
20260504005259 56 288 4.3 10.4 0.02 0.02 0.02 50 1009.0
20260504005029 56 293 4.3 10.4 0.02 0.02 0.02 50 1008.9
20260504004529 56 292 4.3 10.4 0.02 0.02 0.02 51 1008.8
20260504003758 56 274 4.3 10.4 0.02 0.02 0.02 51 1008.8
20260504003258 56 253 4.3 10.4 0.02 0.02 0.02 51 1008.9
20260504002758 56 274 6.1 11.3 0.02 0.02 0.02 51 1008.8
20260504002258 56 280 7.0 16.5 0.02 0.02 0.02 50 1009.0
20260504001758 57 271 7.0 16.5 0.02 0.02 0.02 47 1009.0
20260504001312 57 294 5.2 15.6 0.01 0.01 0.01 47 1009.0
20260504000758 57 330 6.1 15.6 0.01 0.01 0.01 47 1008.8
20260504000258 57 291 7.8 21.7 0.01 0.01 0.01 46 1008.6
20260503235756 57 350 7.8 21.7 0.01 0.01 0.01 46 1008.6
20260503235257 58 287 7.0 16.5 0.00 0.00 0.00 45 1008.6
20260503234758 58 283 6.1 13.0 0.00 0.00 0.00 44 1008.5
20260503234257 58 279 5.2 11.3 0.00 0.00 0.00 42 1008.4
20260503234026 58 315 3.5 7.8 0.00 0.00 0.00 41 1008.4
20260503233256 58 304 2.6 7.8 0.00 0.00 0.00 42 1008.3
20260503232757 58 333 3.5 7.0 0.00 0.00 0.00 43 1008.3
20260503232256 58 258 3.5 11.3 0.00 0.00 0.00 43 1008.2
20260503231756 58 227 4.3 13.9 0.00 0.00 0.00 43 1008.1
20260503231530 58 297 6.1 13.9 0.00 0.00 0.00 41 1008.1
20260503230757 58 287 5.2 13.9 0.00 0.00 0.00 41 1008.4
20260503230254 58 240 4.3 9.6 0.00 0.00 0.00 41 1008.3
20260503225757 58 317 5.2 10.4 0.00 0.00 0.00 40 1008.3
20260503225256 58 280 5.2 10.4 0.00 0.00 0.00 40 1008.3
20260503224756 58 236 4.3 10.4 0.00 0.00 0.00 41 1008.4
20260503224255 58 276 4.3 9.6 0.00 0.00 0.00 42 1008.5
20260503223753 58 8 3.5 9.6 0.00 0.00 0.00 43 1008.6
20260503223254 58 283 2.6 8.7 0.00 0.00 0.00 44 1008.6
20260503222753 58 344 2.6 8.7 0.00 0.00 0.00 43 1008.5
20260503222254 58 299 2.6 7.0 0.00 0.00 0.00 43 1008.4
20260503221753 58 306 2.6 6.1 0.00 0.00 0.00 41 1008.3
20260503221254 58 287 2.6 7.8 0.00 0.00 0.00 43 1008.2
20260503220754 58 270 2.6 7.8 0.00 0.00 0.00 41 1008.2
20260503220256 58 251 2.6 7.8 0.00 0.00 0.00 41 1008.3
20260503215754 58 325 1.7 5.2 0.00 0.00 0.00 41 1008.3
20260503215253 58 275 1.7 4.3 0.00 0.00 0.00 42 1008.3
20260503214753 58 308 1.7 7.0 0.00 0.00 0.00 41 1008.3
20260503214253 58 50 2.6 8.7 0.00 0.00 0.00 41 1008.3
20260503214011 58 353 2.6 8.7 0.00 0.00 0.00 42 1008.4
20260503213251 58 305 2.6 8.7 0.00 0.00 0.00 41 1008.3
20260503212750 58 316 3.5 7.8 0.00 0.00 0.00 41 1008.3
20260503212250 58 291 3.5 7.8 0.00 0.00 0.00 41 1008.3
20260503211750 58 264 3.5 9.6 0.00 0.00 0.00 41 1008.4
20260503211251 58 326 3.5 9.6 0.00 0.00 0.00 42 1008.4
20260503210751 58 280 3.5 7.8 0.00 0.00 0.00 41 1008.5
20260503210733 57 260 3.5 7.8 0.00 0.00 0.00 42 1008.4
20260503205746 57 307 3.5 7.0 0.00 0.00 0.00 41 1008.5
20260503205244 57 240 2.6 12.2 0.00 0.00 0.00 42 1008.4
20260503204744 57 285 3.5 12.2 0.00 0.00 0.00 41 1008.6
20260503204242 56 334 4.3 12.2 0.00 0.00 0.00 42 1008.7
20260503203742 56 6 4.3 12.2 0.00 0.00 0.00 43 1008.7
20260503203255 56 186 4.3 9.6 0.00 0.00 0.00 43 1008.7
20260503202755 56 314 4.3 10.4 0.00 0.00 0.00 43 1008.8
20260503202510 56 287 4.3 11.3 0.00 0.00 0.00 43 1008.9
20260503201742 56 308 4.3 11.3 0.00 0.00 0.00 44 1008.9
20260503201243 56 329 3.5 10.4 0.00 0.00 0.00 43 1009.0
20260503200742 56 297 4.3 9.6 0.00 0.00 0.00 43 1009.2
20260503200243 57 344 3.5 9.6 0.00 0.00 0.00 42 1009.2
20260503195741 56 324 3.5 8.7 0.00 0.00 0.00 43 1009.3
20260503195508 56 245 3.5 8.7 0.00 0.00 0.00 41 1009.4
20260503194737 56 42 2.6 7.0 0.00 0.00 0.00 41 1009.4
20260503194237 55 254 2.6 8.7 0.00 0.00 0.00 43 1009.5
20260503193736 55 161 4.3 11.3 0.00 0.00 0.00 45 1009.6
20260503193505 55 308 4.3 11.3 0.00 0.00 0.00 42 1009.6
20260503192735 56 306 3.5 7.8 0.00 0.00 0.00 43 1009.7
20260503192234 56 324 4.3 11.3 0.00 0.00 0.00 43 1009.8
20260503191735 55 286 4.3 11.3 0.00 0.00 0.00 43 1009.9
20260503191234 55 259 5.2 12.2 0.00 0.00 0.00 43 1009.8
20260503190735 55 290 5.2 12.2 0.00 0.00 0.00 44 1010.1
20260503190235 55 289 4.3 10.4 0.00 0.00 0.00 44 1010.1
20260503185734 55 343 4.3 10.4 0.00 0.00 0.00 45 1009.9
20260503185232 54 289 5.2 11.3 0.00 0.00 0.00 46 1010.0
20260503184730 54 330 5.2 13.0 0.00 0.00 0.00 45 1010.0
20260503184450 55 256 5.2 13.0 0.00 0.00 0.00 44 1010.0
20260503183730 55 285 5.2 12.2 0.00 0.00 0.00 44 1010.0
20260503183450 55 294 4.3 11.3 0.00 0.00 0.00 43 1009.9
20260503182731 55 253 4.3 9.6 0.00 0.00 0.00 45 1010.1
20260503182230 55 10 5.2 11.3 0.00 0.00 0.00 44 1010.1
20260503181731 54 286 5.2 11.3 0.00 0.00 0.00 47 1010.2
20260503181230 54 280 5.2 11.3 0.00 0.00 0.00 46 1010.2
20260503180729 54 288 5.2 11.3 0.00 0.00 0.00 46 1010.4
20260503180230 53 232 5.2 11.3 0.00 0.00 0.00 47 1010.2
20260503175729 54 280 5.2 11.3 0.00 0.00 0.00 46 1010.3
20260503175230 54 263 5.2 10.4 0.00 0.00 0.00 44 1010.4
20260503174731 55 221 5.2 11.3 0.00 0.00 0.00 44 1010.3
20260503174227 55 317 5.2 11.3 0.00 0.00 0.00 43 1010.5
20260503173728 55 273 3.5 10.4 0.00 0.00 0.00 44 1010.5
20260503173227 54 343 3.5 10.4 0.00 0.00 0.00 43 1010.6
20260503172728 53 258 3.5 7.8 0.00 0.00 0.00 48 1010.7
20260503172227 53 335 4.3 10.4 0.00 0.00 0.00 47 1010.7
20260503171728 53 353 3.5 10.4 0.00 0.00 0.00 46 1010.7
20260503171227 54 335 3.5 8.7 0.00 0.00 0.00 47 1010.8
20260503170741 55 309 3.5 8.7 0.00 0.00 0.00 45 1010.9
20260503170227 55 285 3.5 8.7 0.00 0.00 0.00 43 1010.9
20260503150716 49 333 3.5 12.2 0.00 0.00 0.00 46 1012.5
20260503150229 49 6 4.3 12.2 0.00 0.00 0.00 47 1012.6
20260503140213 46 337 4.3 12.2 0.00 0.00 0.00 52 1013.0
20260503131219 44 331 3.5 8.7 0.00 0.00 0.00 62 1013.2
20260503130706 45 280 3.5 8.7 0.00 0.00 0.00 63 1013.2
20260503130206 44 271 3.5 7.8 0.00 0.00 0.00 64 1013.3
20260503120204 42 315 3.5 8.7 0.00 0.00 0.00 74 1013.3
20260503110658 39 17 1.7 5.2 0.00 0.00 0.00 84 1012.9
20260503110159 39 303 1.7 5.2 0.00 0.00 0.00 84 1012.8
20260503100158 38 281 2.6 6.1 0.00 0.00 0.00 87 1012.5
20260503090156 39 271 2.6 6.1 0.00 0.00 0.00 85 1012.5
20260503081148 40 293 3.5 7.8 0.00 0.00 0.00 80 1012.6
20260503080648 40 331 3.5 7.0 0.00 0.00 0.00 79 1012.6
20260503080149 40 328 2.6 7.0 0.00 0.00 0.00 79 1012.6
20260503072649 41 282 2.6 6.1 0.00 0.00 0.00 79 1012.4
20260503072148 41 272 2.6 7.0 0.00 0.00 0.00 79 1012.5
20260503071647 41 339 2.6 7.0 0.00 0.00 0.00 79 1012.5
20260503071145 41 317 2.6 6.1 0.00 0.00 0.00 79 1012.5
20260503070646 41 334 2.6 7.0 0.00 0.00 0.00 79 1012.5
20260503070146 41 328 2.6 7.0 0.00 0.00 0.00 79 1012.5